| time (UTC) | temp F | wind direction | speed MPH | gust MPH | rain 1hr in | rain 24hr in | rain mn in | humidity % | barometer mb |
| 20260902194548 | 94 | 153 | 2.0 | 7.0 | 0.00 | 0.00 | 0.00 | 65 | 1013.4 |
| 20260902194029 | 95 | 227 | 2.0 | 7.0 | 0.00 | 0.00 | 0.00 | 61 | 1013.5 |
| 20260902193528 | 96 | 161 | 3.0 | 7.0 | 0.00 | 0.00 | 0.00 | 62 | 1013.5 |
| 20260902193054 | 95 | 242 | 2.0 | 7.0 | 0.00 | 0.00 | 0.00 | 62 | 1013.6 |
| 20260902192529 | 95 | 250 | 3.0 | 7.0 | 0.00 | 0.00 | 0.00 | 63 | 1013.6 |
| 20260902192031 | 95 | 219 | 2.0 | 8.0 | 0.00 | 0.00 | 0.00 | 65 | 1013.6 |
| 20260902191557 | 95 | 179 | 2.0 | 9.0 | 0.00 | 0.00 | 0.00 | 65 | 1013.8 |
| 20260902191029 | 95 | 223 | 4.0 | 9.0 | 0.00 | 0.00 | 0.00 | 64 | 1013.6 |
| 20260902190529 | 95 | 141 | 2.0 | 7.0 | 0.00 | 0.00 | 0.00 | 65 | 1013.8 |
| 20260902190046 | 95 | 214 | 3.0 | 7.0 | 0.00 | 0.00 | 0.00 | 66 | 1013.9 |
| 20260902185526 | 95 | 155 | 2.0 | 6.0 | 0.00 | 0.00 | 0.00 | 65 | 1013.9 |
| 20260902185030 | 94 | 200 | 2.0 | 9.0 | 0.00 | 0.00 | 0.00 | 66 | 1014.0 |
| 20260902184544 | 94 | 214 | 3.0 | 9.0 | 0.00 | 0.00 | 0.00 | 65 | 1014.0 |
| 20260902184029 | 94 | 166 | 2.0 | 5.0 | 0.00 | 0.00 | 0.00 | 67 | 1014.0 |
| 20260902183526 | 94 | 195 | 2.0 | 8.0 | 0.00 | 0.00 | 0.00 | 66 | 1014.0 |
| 20260902183101 | 94 | 229 | 3.0 | 8.0 | 0.00 | 0.00 | 0.00 | 68 | 1014.0 |
| 20260902182527 | 94 | 143 | 2.0 | 6.0 | 0.00 | 0.00 | 0.00 | 66 | 1014.1 |
| 20260902182029 | 94 | 203 | 2.0 | 8.0 | 0.00 | 0.00 | 0.00 | 67 | 1014.1 |
| 20260902181553 | 93 | 214 | 2.0 | 9.0 | 0.00 | 0.00 | 0.00 | 67 | 1014.1 |
| 20260902181030 | 93 | 192 | 3.0 | 9.0 | 0.00 | 0.00 | 0.00 | 67 | 1014.1 |
| 20260902180527 | 93 | 268 | 3.0 | 10.0 | 0.00 | 0.00 | 0.00 | 69 | 1014.1 |
| 20260902180050 | 93 | 203 | 4.0 | 10.0 | 0.00 | 0.00 | 0.00 | 69 | 1014.3 |
| 20260902175531 | 93 | 239 | 2.0 | 7.0 | 0.00 | 0.00 | 0.00 | 69 | 1014.2 |
| 20260902175034 | 93 | 210 | 2.0 | 7.0 | 0.00 | 0.00 | 0.00 | 68 | 1014.3 |
| 20260902174600 | 93 | 152 | 3.0 | 6.0 | 0.00 | 0.00 | 0.00 | 70 | 1014.2 |
| 20260902174034 | 93 | 191 | 3.0 | 7.0 | 0.00 | 0.00 | 0.00 | 68 | 1014.2 |
| 20260902173530 | 93 | 216 | 2.0 | 7.0 | 0.00 | 0.00 | 0.00 | 67 | 1014.3 |
| 20260902173045 | 92 | 223 | 1.0 | 7.0 | 0.00 | 0.00 | 0.00 | 67 | 1014.2 |
| 20260902172533 | 92 | 211 | 3.0 | 7.0 | 0.00 | 0.00 | 0.00 | 68 | 1014.1 |
| 20260902172028 | 92 | 229 | 3.0 | 7.0 | 0.00 | 0.00 | 0.00 | 68 | 1014.3 |
| 20260902171601 | 92 | 227 | 2.0 | 5.0 | 0.00 | 0.00 | 0.00 | 70 | 1014.2 |
| 20260902171031 | 92 | 189 | 2.0 | 5.0 | 0.00 | 0.00 | 0.00 | 69 | 1014.3 |
| 20260902170530 | 91 | 143 | 2.0 | 5.0 | 0.00 | 0.00 | 0.00 | 68 | 1014.3 |
| 20260902170054 | 91 | 244 | 1.0 | 5.0 | 0.00 | 0.00 | 0.00 | 69 | 1014.5 |
| 20260902165533 | 91 | 236 | 2.0 | 5.0 | 0.00 | 0.00 | 0.00 | 68 | 1014.5 |
| 20260902165031 | 90 | 226 | 2.0 | 6.0 | 0.00 | 0.00 | 0.00 | 69 | 1014.5 |
| 20260902164550 | 90 | 66 | 1.0 | 6.0 | 0.00 | 0.00 | 0.00 | 68 | 1014.6 |
| 20260902164033 | 90 | 233 | 3.0 | 6.0 | 0.00 | 0.00 | 0.00 | 70 | 1014.6 |
| 20260902163528 | 90 | 226 | 1.0 | 5.0 | 0.00 | 0.00 | 0.00 | 71 | 1014.7 |
| 20260902163047 | 90 | 213 | 2.0 | 5.0 | 0.00 | 0.00 | 0.00 | 73 | 1014.8 |
| 20260902162527 | 90 | 65 | 2.0 | 5.0 | 0.00 | 0.00 | 0.00 | 71 | 1014.7 |
| 20260902162030 | 90 | 202 | 2.0 | 5.0 | 0.00 | 0.00 | 0.00 | 73 | 1014.8 |
| 20260902161558 | 90 | 344 | 1.0 | 5.0 | 0.00 | 0.00 | 0.00 | 72 | 1015.0 |
| 20260902161029 | 89 | 274 | 1.0 | 5.0 | 0.00 | 0.00 | 0.00 | 73 | 1015.0 |
| 20260902160535 | 89 | 162 | 1.0 | 7.0 | 0.00 | 0.00 | 0.00 | 73 | 1014.8 |
| 20260902160055 | 89 | 185 | 1.0 | 7.0 | 0.00 | 0.00 | 0.00 | 74 | 1015.0 |
| 20260902155530 | 88 | 162 | 2.0 | 7.0 | 0.00 | 0.00 | 0.00 | 72 | 1015.0 |
| 20260902155028 | 88 | 358 | 2.0 | 5.0 | 0.00 | 0.00 | 0.00 | 74 | 1015.1 |
| 20260902154604 | 88 | 199 | 1.0 | 5.0 | 0.00 | 0.00 | 0.00 | 76 | 1014.8 |
| 20260902154031 | 88 | 227 | 1.0 | 5.0 | 0.00 | 0.00 | 0.00 | 76 | 1014.8 |
| 20260902153530 | 87 | 210 | 1.0 | 6.0 | 0.00 | 0.00 | 0.00 | 76 | 1014.9 |
| 20260902153043 | 87 | 236 | 2.0 | 6.0 | 0.00 | 0.00 | 0.00 | 76 | 1014.9 |
| 20260902152530 | 87 | 198 | 2.0 | 5.0 | 0.00 | 0.00 | 0.00 | 76 | 1014.9 |
| 20260902152030 | 87 | 326 | 1.0 | 5.0 | 0.00 | 0.00 | 0.00 | 76 | 1015.0 |
| 20260902151548 | 86 | 127 | 2.0 | 6.0 | 0.00 | 0.00 | 0.00 | 75 | 1014.6 |
| 20260902151030 | 87 | 150 | 2.0 | 6.0 | 0.00 | 0.00 | 0.00 | 75 | 1014.6 |
| 20260902150531 | 86 | 167 | 1.0 | 5.0 | 0.00 | 0.00 | 0.00 | 76 | 1014.5 |
| 20260902150042 | 86 | 57 | 2.0 | 8.0 | 0.00 | 0.00 | 0.00 | 78 | 1014.5 |
| 20260902145531 | 85 | 175 | 1.0 | 8.0 | 0.00 | 0.00 | 0.00 | 77 | 1014.5 |
| 20260902145041 | 85 | 201 | 1.0 | 5.0 | 0.00 | 0.00 | 0.00 | 78 | 1014.4 |
| 20260902144553 | 84 | 186 | 2.0 | 6.0 | 0.00 | 0.00 | 0.00 | 78 | 1014.5 |
| 20260902144030 | 84 | 240 | 2.0 | 6.0 | 0.00 | 0.00 | 0.00 | 77 | 1014.5 |
| 20260902143530 | 84 | 245 | 2.0 | 6.0 | 0.00 | 0.00 | 0.00 | 78 | 1014.5 |
| 20260902143055 | 84 | 158 | 2.0 | 5.0 | 0.00 | 0.00 | 0.00 | 80 | 1014.7 |
| 20260902142530 | 83 | 185 | 2.0 | 4.0 | 0.00 | 0.00 | 0.00 | 81 | 1014.6 |
| 20260902142030 | 83 | 208 | 1.0 | 6.0 | 0.00 | 0.00 | 0.00 | 79 | 1014.8 |
| 20260902141545 | 83 | 0 | 1.0 | 6.0 | 0.00 | 0.00 | 0.00 | 79 | 1014.7 |
| 20260902141030 | 83 | 194 | 1.0 | 5.0 | 0.00 | 0.00 | 0.00 | 80 | 1014.7 |
| 20260902140530 | 83 | 212 | 1.0 | 5.0 | 0.00 | 0.00 | 0.00 | 78 | 1014.7 |
| 20260902140050 | 83 | 233 | 2.0 | 5.0 | 0.00 | 0.00 | 0.00 | 78 | 1014.8 |
| 20260902135528 | 84 | 172 | 0.0 | 5.0 | 0.00 | 0.00 | 0.00 | 78 | 1014.7 |
| 20260902135029 | 84 | 127 | 1.0 | 5.0 | 0.00 | 0.00 | 0.00 | 79 | 1014.8 |
| 20260902134541 | 83 | 224 | 2.0 | 5.0 | 0.00 | 0.00 | 0.00 | 81 | 1014.8 |
| 20260902134029 | 82 | 222 | 2.0 | 5.0 | 0.00 | 0.00 | 0.00 | 81 | 1014.7 |
| 20260902133530 | 82 | 183 | 2.0 | 4.0 | 0.00 | 0.00 | 0.00 | 81 | 1014.8 |
| 20260902133042 | 82 | 232 | 1.0 | 6.0 | 0.00 | 0.00 | 0.00 | 81 | 1014.9 |
| 20260902132527 | 81 | 172 | 1.0 | 6.0 | 0.00 | 0.00 | 0.00 | 82 | 1015.0 |
| 20260902132028 | 80 | 237 | 2.0 | 6.0 | 0.00 | 0.00 | 0.00 | 83 | 1015.0 |
| 20260902131550 | 80 | 227 | 0.0 | 3.0 | 0.00 | 0.00 | 0.00 | 83 | 1015.0 |
| 20260902131030 | 80 | 197 | 0.0 | 3.0 | 0.00 | 0.00 | 0.00 | 84 | 1015.0 |
| 20260902130530 | 79 | 214 | 0.0 | 4.0 | 0.00 | 0.00 | 0.00 | 86 | 1015.1 |
| 20260902130048 | 78 | 124 | 1.0 | 4.0 | 0.00 | 0.00 | 0.00 | 86 | 1015.0 |
| 20260902125530 | 78 | 204 | 1.0 | 3.0 | 0.00 | 0.00 | 0.00 | 87 | 1014.9 |
| 20260902125032 | 77 | 216 | 1.0 | 4.0 | 0.00 | 0.00 | 0.00 | 88 | 1015.0 |
| 20260902124553 | 77 | 0 | 1.0 | 4.0 | 0.00 | 0.00 | 0.00 | 89 | 1014.9 |
| 20260902124030 | 76 | 220 | 0.0 | 2.0 | 0.00 | 0.00 | 0.00 | 90 | 1015.0 |
| 20260902123529 | 75 | 0 | 0.0 | 2.0 | 0.00 | 0.00 | 0.00 | 91 | 1014.9 |
| 20260902123041 | 75 | 215 | 0.0 | 2.0 | 0.00 | 0.00 | 0.00 | 91 | 1014.9 |
| 20260902122530 | 74 | 0 | 0.0 | 0.0 | 0.00 | 0.00 | 0.00 | 91 | 1015.0 |
| 20260902122031 | 74 | 0 | 0.0 | 0.0 | 0.00 | 0.00 | 0.00 | 92 | 1015.0 |
| 20260902121549 | 74 | 0 | 0.0 | 0.0 | 0.00 | 0.00 | 0.00 | 92 | 1015.0 |
| 20260902121028 | 74 | 0 | 0.0 | 0.0 | 0.00 | 0.00 | 0.00 | 93 | 1014.9 |
| 20260902120530 | 73 | 0 | 0.0 | 1.0 | 0.00 | 0.00 | 0.00 | 93 | 1014.9 |
| 20260902120043 | 73 | 0 | 0.0 | 1.0 | 0.00 | 0.00 | 0.00 | 93 | 1014.9 |
| 20260902115529 | 73 | 0 | 0.0 | 0.0 | 0.00 | 0.01 | 0.00 | 94 | 1014.8 |
| 20260902115027 | 73 | 0 | 0.0 | 0.0 | 0.00 | 0.01 | 0.00 | 94 | 1014.8 |
| 20260902114610 | 72 | 0 | 0.0 | 0.0 | 0.00 | 0.01 | 0.00 | 94 | 1014.8 |
| 20260902114028 | 72 | 0 | 0.0 | 1.0 | 0.00 | 0.01 | 0.00 | 94 | 1014.7 |
| 20260902113527 | 72 | 0 | 0.0 | 1.0 | 0.00 | 0.01 | 0.00 | 95 | 1014.8 |
| 20260902113059 | 72 | 0 | 0.0 | 1.0 | 0.00 | 0.01 | 0.00 | 95 | 1014.8 |
| 20260902112530 | 72 | 0 | 0.0 | 0.0 | 0.00 | 0.01 | 0.00 | 95 | 1014.8 |
| 20260902112029 | 72 | 0 | 0.0 | 0.0 | 0.00 | 0.01 | 0.00 | 95 | 1014.8 |
| 20260902111558 | 72 | 0 | 0.0 | 0.0 | 0.00 | 0.01 | 0.00 | 95 | 1015.0 |
| 20260902111028 | 72 | 0 | 0.0 | 0.0 | 0.00 | 0.01 | 0.00 | 95 | 1014.9 |
| 20260902110528 | 72 | 0 | 0.0 | 0.0 | 0.00 | 0.01 | 0.00 | 95 | 1015.1 |
| 20260902110049 | 72 | 0 | 0.0 | 0.0 | 0.00 | 0.01 | 0.00 | 94 | 1014.9 |
| 20260902105529 | 72 | 0 | 0.0 | 0.0 | 0.00 | 0.02 | 0.00 | 94 | 1014.8 |
| 20260902105030 | 72 | 0 | 0.0 | 0.0 | 0.00 | 0.02 | 0.00 | 94 | 1014.9 |
| 20260902104544 | 72 | 0 | 0.0 | 0.0 | 0.00 | 0.02 | 0.00 | 94 | 1014.8 |
| 20260902104028 | 73 | 0 | 0.0 | 0.0 | 0.00 | 0.02 | 0.00 | 94 | 1014.8 |
| 20260902103528 | 73 | 0 | 0.0 | 0.0 | 0.00 | 0.02 | 0.00 | 94 | 1014.6 |
| 20260902103101 | 73 | 0 | 0.0 | 0.0 | 0.00 | 0.02 | 0.00 | 94 | 1014.7 |
| 20260902102530 | 73 | 0 | 0.0 | 0.0 | 0.00 | 0.02 | 0.00 | 94 | 1014.7 |
| 20260902102030 | 73 | 0 | 0.0 | 0.0 | 0.00 | 0.02 | 0.00 | 94 | 1014.7 |
| 20260902101544 | 73 | 0 | 0.0 | 0.0 | 0.00 | 0.02 | 0.00 | 93 | 1014.9 |
| 20260902101029 | 73 | 0 | 0.0 | 0.0 | 0.00 | 0.02 | 0.00 | 93 | 1014.9 |
| 20260902100528 | 73 | 0 | 0.0 | 0.0 | 0.00 | 0.02 | 0.00 | 93 | 1014.7 |
| 20260902100104 | 73 | 0 | 0.0 | 0.0 | 0.00 | 0.02 | 0.00 | 93 | 1014.7 |
| 20260902095528 | 74 | 0 | 0.0 | 0.0 | 0.00 | 0.04 | 0.00 | 92 | 1014.6 |
| 20260902095028 | 74 | 0 | 0.0 | 0.0 | 0.00 | 0.04 | 0.00 | 92 | 1014.6 |
| 20260902094613 | 74 | 0 | 0.0 | 0.0 | 0.00 | 0.04 | 0.00 | 92 | 1014.6 |
| 20260902094028 | 74 | 0 | 0.0 | 0.0 | 0.00 | 0.04 | 0.00 | 91 | 1014.6 |
| 20260902093528 | 74 | 0 | 0.0 | 0.0 | 0.00 | 0.04 | 0.00 | 91 | 1014.6 |
| 20260902093111 | 75 | 0 | 0.0 | 0.0 | 0.00 | 0.04 | 0.00 | 90 | 1014.5 |
| 20260902092532 | 75 | 152 | 0.0 | 1.0 | 0.00 | 0.04 | 0.00 | 90 | 1014.5 |
| 20260902092032 | 75 | 0 | 0.0 | 1.0 | 0.00 | 0.04 | 0.00 | 90 | 1014.4 |
| 20260902091542 | 75 | 0 | 0.0 | 1.0 | 0.00 | 0.04 | 0.00 | 90 | 1014.4 |
| 20260902091032 | 75 | 0 | 0.0 | 1.0 | 0.00 | 0.04 | 0.00 | 90 | 1014.5 |
| 20260902090530 | 75 | 150 | 0.0 | 1.0 | 0.00 | 0.04 | 0.00 | 89 | 1014.5 |
| 20260902090052 | 76 | 0 | 0.0 | 1.0 | 0.00 | 0.04 | 0.00 | 89 | 1014.4 |
| 20260902085528 | 76 | 0 | 0.0 | 1.0 | 0.00 | 0.06 | 0.00 | 89 | 1014.4 |
| 20260902085031 | 76 | 0 | 0.0 | 1.0 | 0.00 | 0.06 | 0.00 | 89 | 1014.4 |
| 20260902084547 | 76 | 0 | 0.0 | 2.0 | 0.00 | 0.06 | 0.00 | 88 | 1014.4 |
| 20260902084029 | 76 | 0 | 0.0 | 2.0 | 0.00 | 0.06 | 0.00 | 88 | 1014.3 |
| 20260902083528 | 76 | 0 | 0.0 | 1.0 | 0.00 | 0.06 | 0.00 | 88 | 1014.2 |
| 20260902083045 | 76 | 181 | 0.0 | 1.0 | 0.00 | 0.06 | 0.00 | 88 | 1014.2 |
| 20260902082527 | 76 | 0 | 0.0 | 1.0 | 0.00 | 0.06 | 0.00 | 88 | 1014.3 |
| 20260902082032 | 76 | 0 | 0.0 | 1.0 | 0.00 | 0.06 | 0.00 | 88 | 1014.3 |
| 20260902081548 | 77 | 0 | 0.0 | 1.0 | 0.00 | 0.06 | 0.00 | 88 | 1014.2 |
| 20260902081028 | 77 | 0 | 0.0 | 2.0 | 0.00 | 0.06 | 0.00 | 87 | 1014.1 |
| 20260902080530 | 77 | 251 | 1.0 | 2.0 | 0.00 | 0.06 | 0.00 | 88 | 1014.0 |
| 20260902080043 | 77 | 148 | 0.0 | 2.0 | 0.00 | 0.06 | 0.00 | 88 | 1014.2 |
| 20260902075531 | 77 | 177 | 0.0 | 1.0 | 0.00 | 0.06 | 0.00 | 88 | 1014.2 |
| 20260902075030 | 77 | 0 | 0.0 | 1.0 | 0.00 | 0.06 | 0.00 | 89 | 1014.1 |
| 20260902074551 | 77 | 0 | 0.0 | 1.0 | 0.00 | 0.06 | 0.00 | 89 | 1014.1 |
| 20260902074029 | 77 | 0 | 0.0 | 1.0 | 0.00 | 0.06 | 0.00 | 88 | 1014.2 |
| 20260902073531 | 77 | 0 | 0.0 | 2.0 | 0.00 | 0.06 | 0.00 | 88 | 1014.0 |
| 20260902073052 | 77 | 194 | 0.0 | 2.0 | 0.00 | 0.06 | 0.00 | 88 | 1014.1 |
| 20260902072528 | 77 | 0 | 0.0 | 3.0 | 0.00 | 0.06 | 0.00 | 88 | 1014.0 |
| 20260902072026 | 77 | 212 | 1.0 | 3.0 | 0.00 | 0.06 | 0.00 | 88 | 1014.0 |
| 20260902071548 | 77 | 164 | 1.0 | 3.0 | 0.00 | 0.06 | 0.00 | 88 | 1014.0 |
| 20260902071028 | 77 | 176 | 0.0 | 2.0 | 0.00 | 0.06 | 0.00 | 88 | 1014.0 |
| 20260902070529 | 77 | 250 | 0.0 | 2.0 | 0.00 | 0.06 | 0.00 | 88 | 1013.9 |
| 20260902070046 | 77 | 213 | 0.0 | 2.0 | 0.00 | 0.06 | 0.00 | 88 | 1013.9 |
| 20260902065529 | 77 | 0 | 0.0 | 1.0 | 0.00 | 0.06 | 0.00 | 88 | 1014.1 |
| 20260902065029 | 77 | 0 | 0.0 | 1.0 | 0.00 | 0.06 | 0.00 | 88 | 1014.2 |
| 20260902064543 | 77 | 0 | 0.0 | 1.0 | 0.00 | 0.06 | 0.00 | 88 | 1014.3 |
| 20260902064029 | 77 | 243 | 0.0 | 2.0 | 0.00 | 0.06 | 0.00 | 88 | 1014.2 |
| 20260902063530 | 77 | 0 | 0.0 | 2.0 | 0.00 | 0.06 | 0.00 | 88 | 1014.4 |
| 20260902063048 | 77 | 0 | 0.0 | 1.0 | 0.00 | 0.06 | 0.00 | 89 | 1014.2 |
| 20260902062530 | 77 | 0 | 0.0 | 1.0 | 0.00 | 0.06 | 0.00 | 89 | 1014.2 |
| 20260902062031 | 77 | 0 | 0.0 | 2.0 | 0.00 | 0.06 | 0.00 | 89 | 1014.2 |
| 20260902061556 | 77 | 0 | 0.0 | 2.0 | 0.00 | 0.06 | 0.00 | 89 | 1014.1 |
| 20260902061028 | 77 | 0 | 0.0 | 2.0 | 0.00 | 0.06 | 0.00 | 89 | 1014.1 |
| 20260902060529 | 77 | 0 | 0.0 | 2.0 | 0.00 | 0.06 | 0.00 | 89 | 1014.2 |
| 20260902060055 | 77 | 224 | 0.0 | 1.0 | 0.00 | 0.06 | 0.00 | 89 | 1014.1 |
| 20260902055530 | 77 | 0 | 0.0 | 1.0 | 0.00 | 0.06 | 0.00 | 89 | 1014.2 |
| 20260902055030 | 77 | 0 | 0.0 | 1.0 | 0.00 | 0.06 | 0.00 | 89 | 1014.2 |
| 20260902054548 | 77 | 0 | 0.0 | 1.0 | 0.00 | 0.06 | 0.00 | 90 | 1014.3 |
| 20260902054028 | 77 | 0 | 0.0 | 2.0 | 0.00 | 0.06 | 0.00 | 90 | 1014.3 |
| 20260902053529 | 77 | 0 | 0.0 | 2.0 | 0.00 | 0.06 | 0.00 | 90 | 1014.3 |
| 20260902053052 | 77 | 0 | 0.0 | 1.0 | 0.00 | 0.06 | 0.00 | 90 | 1014.3 |
| 20260902052528 | 77 | 0 | 0.0 | 1.0 | 0.00 | 0.06 | 0.00 | 90 | 1014.3 |
| 20260902052029 | 77 | 0 | 0.0 | 1.0 | 0.00 | 0.06 | 0.00 | 90 | 1014.3 |
| 20260902051600 | 77 | 0 | 0.0 | 1.0 | 0.00 | 0.06 | 0.00 | 90 | 1014.3 |
| 20260902051029 | 77 | 0 | 0.0 | 0.0 | 0.00 | 0.06 | 0.00 | 91 | 1014.2 |
| 20260902050527 | 77 | 0 | 0.0 | 0.0 | 0.00 | 0.06 | 0.00 | 90 | 1014.4 |
| 20260902050054 | 77 | 0 | 0.0 | 1.0 | 0.00 | 0.06 | 0.00 | 90 | 1014.2 |
| 20260902045529 | 78 | 0 | 0.0 | 1.0 | 0.00 | 0.06 | 0.06 | 90 | 1014.4 |
| 20260902045030 | 78 | 0 | 0.0 | 1.0 | 0.00 | 0.06 | 0.06 | 90 | 1014.4 |
| 20260902044558 | 78 | 0 | 0.0 | 1.0 | 0.00 | 0.06 | 0.06 | 89 | 1014.4 |
| 20260902044030 | 78 | 0 | 0.0 | 1.0 | 0.00 | 0.06 | 0.06 | 89 | 1014.4 |
| 20260902043530 | 78 | 0 | 0.0 | 2.0 | 0.00 | 0.06 | 0.06 | 89 | 1014.4 |
| 20260902043054 | 78 | 153 | 0.0 | 2.0 | 0.00 | 0.06 | 0.06 | 89 | 1014.5 |
| 20260902042529 | 78 | 0 | 0.0 | 1.0 | 0.00 | 0.06 | 0.06 | 89 | 1014.3 |
| 20260902042029 | 78 | 0 | 0.0 | 1.0 | 0.00 | 0.06 | 0.06 | 89 | 1014.5 |
| 20260902041605 | 78 | 0 | 0.0 | 1.0 | 0.00 | 0.06 | 0.06 | 89 | 1014.5 |
| 20260902041032 | 78 | 0 | 0.0 | 2.0 | 0.00 | 0.06 | 0.06 | 89 | 1014.4 |
| 20260902040528 | 78 | 0 | 0.0 | 2.0 | 0.00 | 0.06 | 0.06 | 88 | 1014.4 |
| 20260902040048 | 78 | 0 | 0.0 | 2.0 | 0.00 | 0.06 | 0.06 | 88 | 1014.5 |
| 20260902035529 | 79 | 254 | 0.0 | 1.0 | 0.00 | 0.06 | 0.06 | 88 | 1014.6 |
| 20260902035029 | 79 | 0 | 0.0 | 1.0 | 0.00 | 0.06 | 0.06 | 88 | 1014.5 |
| 20260902034544 | 79 | 0 | 0.0 | 2.0 | 0.00 | 0.06 | 0.06 | 87 | 1014.5 |
| 20260902034028 | 79 | 219 | 0.0 | 2.0 | 0.00 | 0.06 | 0.06 | 87 | 1014.6 |
| 20260902033528 | 79 | 217 | 0.0 | 2.0 | 0.00 | 0.06 | 0.06 | 87 | 1014.5 |
| 20260902033046 | 80 | 0 | 0.0 | 2.0 | 0.00 | 0.06 | 0.06 | 87 | 1014.4 |
| 20260902032532 | 80 | 0 | 0.0 | 1.0 | 0.00 | 0.06 | 0.06 | 87 | 1014.5 |
| 20260902032029 | 80 | 0 | 0.0 | 2.0 | 0.00 | 0.06 | 0.06 | 86 | 1014.6 |
| 20260902031601 | 80 | 220 | 0.0 | 2.0 | 0.00 | 0.06 | 0.06 | 86 | 1014.6 |
| 20260902031027 | 80 | 0 | 0.0 | 1.0 | 0.00 | 0.06 | 0.06 | 86 | 1014.4 |
| 20260902030532 | 81 | 187 | 0.0 | 3.0 | 0.00 | 0.06 | 0.06 | 85 | 1014.5 |
| 20260902030047 | 81 | 0 | 1.0 | 3.0 | 0.00 | 0.06 | 0.06 | 85 | 1014.6 |
| 20260902025529 | 81 | 207 | 0.0 | 2.0 | 0.00 | 0.06 | 0.06 | 84 | 1014.6 |
| 20260902025028 | 81 | 197 | 0.0 | 2.0 | 0.00 | 0.06 | 0.06 | 84 | 1014.6 |
| 20260902024551 | 81 | 191 | 0.0 | 2.0 | 0.00 | 0.06 | 0.06 | 84 | 1014.5 |
| 20260902024028 | 81 | 223 | 0.0 | 2.0 | 0.00 | 0.06 | 0.06 | 84 | 1014.6 |
| 20260902023526 | 82 | 165 | 0.0 | 2.0 | 0.00 | 0.06 | 0.06 | 84 | 1014.5 |
| 20260902023051 | 82 | 161 | 0.0 | 2.0 | 0.00 | 0.06 | 0.06 | 84 | 1014.5 |
| 20260902022530 | 82 | 0 | 0.0 | 2.0 | 0.00 | 0.06 | 0.06 | 83 | 1014.5 |
| 20260902022029 | 82 | 0 | 0.0 | 3.0 | 0.00 | 0.06 | 0.06 | 83 | 1014.4 |
| 20260902021557 | 82 | 183 | 0.0 | 5.0 | 0.00 | 0.06 | 0.06 | 82 | 1014.5 |
| 20260902021029 | 83 | 217 | 0.0 | 5.0 | 0.00 | 0.06 | 0.06 | 82 | 1014.5 |
| 20260902020529 | 83 | 229 | 0.0 | 4.0 | 0.00 | 0.06 | 0.06 | 81 | 1014.3 |
| 20260902020050 | 83 | 226 | 1.0 | 4.0 | 0.00 | 0.06 | 0.06 | 81 | 1014.3 |
| 20260902015530 | 83 | 195 | 1.0 | 3.0 | 0.00 | 0.06 | 0.06 | 81 | 1014.3 |
| 20260902015029 | 83 | 167 | 1.0 | 3.0 | 0.00 | 0.06 | 0.06 | 80 | 1014.2 |
| 20260902014546 | 84 | 172 | 1.0 | 3.0 | 0.00 | 0.06 | 0.06 | 80 | 1014.5 |
| 20260902014026 | 84 | 0 | 0.0 | 4.0 | 0.00 | 0.06 | 0.06 | 80 | 1014.4 |
| 20260902013532 | 84 | 165 | 1.0 | 4.0 | 0.00 | 0.06 | 0.06 | 79 | 1014.2 |
| 20260902013042 | 84 | 205 | 1.0 | 4.0 | 0.00 | 0.06 | 0.06 | 79 | 1014.2 |
| 20260902012526 | 84 | 240 | 1.0 | 6.0 | 0.00 | 0.06 | 0.06 | 79 | 1014.1 |
| 20260902012029 | 84 | 231 | 1.0 | 6.0 | 0.00 | 0.06 | 0.06 | 79 | 1014.1 |
| 20260902011555 | 84 | 210 | 1.0 | 3.0 | 0.00 | 0.06 | 0.06 | 79 | 1014.0 |
| 20260902011027 | 84 | 176 | 1.0 | 2.0 | 0.00 | 0.06 | 0.06 | 79 | 1014.0 |
| 20260902010529 | 84 | 173 | 1.0 | 2.0 | 0.00 | 0.06 | 0.06 | 78 | 1013.8 |
| 20260902010049 | 85 | 205 | 0.0 | 4.0 | 0.00 | 0.06 | 0.06 | 78 | 1014.0 |
| 20260902005530 | 85 | 195 | 0.0 | 4.0 | 0.00 | 0.06 | 0.06 | 78 | 1013.8 |
| 20260902005029 | 85 | 212 | 0.0 | 3.0 | 0.00 | 0.06 | 0.06 | 77 | 1013.8 |
| 20260902004551 | 85 | 250 | 1.0 | 3.0 | 0.00 | 0.06 | 0.06 | 77 | 1013.7 |
| 20260902004028 | 86 | 155 | 1.0 | 3.0 | 0.00 | 0.06 | 0.06 | 78 | 1013.7 |
| 20260902003529 | 86 | 224 | 0.0 | 3.0 | 0.00 | 0.06 | 0.06 | 78 | 1013.7 |
| 20260902003047 | 86 | 0 | 0.0 | 3.0 | 0.00 | 0.06 | 0.06 | 78 | 1013.7 |
| 20260902002529 | 87 | 217 | 1.0 | 4.0 | 0.00 | 0.06 | 0.06 | 78 | 1013.7 |
| 20260902002029 | 87 | 150 | 1.0 | 4.0 | 0.00 | 0.06 | 0.06 | 78 | 1013.8 |
| 20260902001542 | 87 | 145 | 0.0 | 2.0 | 0.00 | 0.06 | 0.06 | 76 | 1013.8 |
| 20260902001029 | 88 | 212 | 0.0 | 3.0 | 0.00 | 0.06 | 0.06 | 75 | 1013.6 |
| 20260902000527 | 88 | 200 | 0.0 | 3.0 | 0.00 | 0.06 | 0.06 | 74 | 1013.8 |
| 20260902000041 | 89 | 134 | 1.0 | 3.0 | 0.00 | 0.06 | 0.06 | 73 | 1013.7 |
| 20260901235530 | 89 | 247 | 1.0 | 4.0 | 0.00 | 0.13 | 0.06 | 72 | 1013.8 |
| 20260901235029 | 89 | 169 | 1.0 | 4.0 | 0.00 | 0.13 | 0.06 | 72 | 1013.8 |
| 20260901234554 | 89 | 223 | 1.0 | 6.0 | 0.00 | 0.13 | 0.06 | 72 | 1013.9 |
| 20260901234028 | 90 | 195 | 2.0 | 6.0 | 0.00 | 0.13 | 0.06 | 72 | 1013.9 |
| 20260901233529 | 90 | 198 | 2.0 | 3.0 | 0.00 | 0.13 | 0.06 | 71 | 1013.9 |
| 20260901233056 | 90 | 226 | 1.0 | 4.0 | 0.00 | 0.13 | 0.06 | 71 | 1013.9 |
| 20260901232529 | 90 | 203 | 1.0 | 4.0 | 0.00 | 0.13 | 0.06 | 70 | 1013.9 |
| 20260901232027 | 91 | 236 | 1.0 | 4.0 | 0.00 | 0.13 | 0.06 | 69 | 1013.9 |
| 20260901231542 | 91 | 239 | 2.0 | 4.0 | 0.00 | 0.13 | 0.06 | 69 | 1014.0 |
| 20260901231029 | 91 | 224 | 1.0 | 5.0 | 0.00 | 0.13 | 0.06 | 70 | 1013.8 |
| 20260901230530 | 91 | 214 | 1.0 | 6.0 | 0.00 | 0.13 | 0.06 | 68 | 1013.9 |
| 20260901230053 | 92 | 214 | 2.0 | 6.0 | 0.00 | 0.13 | 0.06 | 68 | 1013.9 |
| 20260901225532 | 92 | 240 | 2.0 | 5.0 | 0.00 | 0.16 | 0.06 | 68 | 1013.9 |
| 20260901225031 | 92 | 240 | 1.0 | 6.0 | 0.00 | 0.16 | 0.06 | 69 | 1013.9 |
| 20260901224553 | 92 | 191 | 2.0 | 6.0 | 0.00 | 0.16 | 0.06 | 69 | 1013.9 |
| 20260901224031 | 92 | 233 | 1.0 | 3.0 | 0.00 | 0.16 | 0.06 | 67 | 1013.8 |
| 20260901223531 | 92 | 238 | 1.0 | 5.0 | 0.00 | 0.16 | 0.06 | 67 | 1013.8 |
| 20260901223046 | 93 | 194 | 1.0 | 5.0 | 0.00 | 0.16 | 0.06 | 67 | 1013.8 |
| 20260901222532 | 93 | 158 | 1.0 | 9.0 | 0.00 | 0.16 | 0.06 | 68 | 1013.8 |
| 20260901222030 | 93 | 229 | 2.0 | 9.0 | 0.00 | 0.16 | 0.06 | 66 | 1013.9 |
| 20260901221601 | 93 | 136 | 2.0 | 6.0 | 0.00 | 0.16 | 0.06 | 65 | 1013.9 |
| 20260901221032 | 93 | 199 | 3.0 | 6.0 | 0.00 | 0.16 | 0.06 | 67 | 1013.8 |
| 20260901220530 | 94 | 217 | 2.0 | 6.0 | 0.00 | 0.16 | 0.06 | 67 | 1013.8 |
| 20260901220054 | 94 | 227 | 2.0 | 6.0 | 0.00 | 0.16 | 0.06 | 66 | 1013.8 |
| 20260901215530 | 94 | 222 | 1.0 | 7.0 | 0.00 | 0.16 | 0.06 | 66 | 1013.8 |
| 20260901215029 | 94 | 224 | 1.0 | 7.0 | 0.00 | 0.16 | 0.06 | 65 | 1013.9 |
| 20260901214604 | 94 | 203 | 3.0 | 7.0 | 0.00 | 0.16 | 0.06 | 64 | 1013.8 |
| 20260901214030 | 94 | 124 | 2.0 | 6.0 | 0.00 | 0.16 | 0.06 | 67 | 1013.8 |
| 20260901213531 | 94 | 177 | 1.0 | 5.0 | 0.00 | 0.16 | 0.06 | 70 | 1013.8 |
| 20260901213119 | 93 | 234 | 2.0 | 5.0 | 0.00 | 0.16 | 0.06 | 68 | 1013.8 |
| 20260901212530 | 93 | 153 | 2.0 | 5.0 | 0.00 | 0.16 | 0.06 | 68 | 1013.8 |
| 20260901212028 | 93 | 155 | 2.0 | 6.0 | 0.00 | 0.16 | 0.06 | 68 | 1013.8 |
| 20260901211547 | 93 | 160 | 2.0 | 6.0 | 0.00 | 0.16 | 0.06 | 69 | 1013.9 |
| 20260901211030 | 93 | 210 | 2.0 | 6.0 | 0.00 | 0.16 | 0.06 | 70 | 1013.9 |
| 20260901210532 | 94 | 142 | 2.0 | 7.0 | 0.00 | 0.16 | 0.06 | 68 | 1013.9 |
| 20260901210045 | 94 | 225 | 2.0 | 7.0 | 0.00 | 0.16 | 0.06 | 67 | 1014.1 |
| 20260901205529 | 94 | 226 | 1.0 | 6.0 | 0.00 | 0.16 | 0.06 | 68 | 1014.0 |
| 20260901205029 | 94 | 155 | 2.0 | 6.0 | 0.00 | 0.16 | 0.06 | 69 | 1014.0 |
| 20260901204551 | 94 | 213 | 2.0 | 7.0 | 0.00 | 0.16 | 0.06 | 69 | 1014.0 |
| 20260901204030 | 94 | 231 | 3.0 | 7.0 | 0.00 | 0.16 | 0.06 | 68 | 1014.0 |
| 20260901203530 | 94 | 160 | 2.0 | 6.0 | 0.00 | 0.16 | 0.06 | 68 | 1014.0 |
| 20260901203114 | 95 | 223 | 2.0 | 6.0 | 0.00 | 0.16 | 0.06 | 68 | 1014.0 |
| 20260901202529 | 95 | 193 | 1.0 | 6.0 | 0.00 | 0.16 | 0.06 | 69 | 1014.0 |
| 20260901202029 | 94 | 180 | 3.0 | 8.0 | 0.00 | 0.16 | 0.06 | 69 | 1014.2 |
| 20260901201555 | 94 | 171 | 2.0 | 8.0 | 0.00 | 0.16 | 0.06 | 71 | 1014.0 |
| 20260901201030 | 94 | 245 | 2.0 | 8.0 | 0.00 | 0.16 | 0.06 | 68 | 1014.1 |
| 20260901200531 | 94 | 196 | 2.0 | 8.0 | 0.00 | 0.16 | 0.06 | 68 | 1014.1 |
| 20260901200045 | 94 | 245 | 3.0 | 7.0 | 0.00 | 0.16 | 0.06 | 69 | 1014.0 |
| 20260901195529 | 94 | 218 | 3.0 | 7.0 | 0.00 | 0.16 | 0.06 | 68 | 1014.2 |
| 20260901195032 | 94 | 191 | 2.0 | 7.0 | 0.00 | 0.16 | 0.06 | 72 | 1014.2 |